{"data":{"norad_id":58634,"epoch":"2026-05-24T20:32:25.732896Z","epoch_age_seconds":94340,"freshness":"FRESH","line1":"1 58634U 23203S   26144.85585339 -.00000945  00000+0 -24818-4 0  9995","line2":"2 58634  43.0028 356.5605 0000889 246.2040 113.8719 15.27592100136448","mean_motion":15.275921,"eccentricity":8.89e-5,"inclination_deg":43.0028,"raan_deg":356.5605,"arg_perigee_deg":246.204,"mean_anomaly_deg":113.8719,"bstar":-2.4818e-5,"rev_number":13644,"period_min":94.266002030254,"perigee_km":482.4029083029,"apogee_km":483.62282074881,"semimajor_km":6861.1498645259,"source":"CELESTRAK","updated_at":"2026-05-25T13:38:18.708320Z"}}